FLOCK 3P'-3 (43119 NORAD) Tracking and Keplerian Element Data

This shows tracking and keplerian element data for the satellite.

Feedback or suggestion? Click here.




ElementValue
Catalog43119
NameFLOCK 3P'-3
Epoch Orbit514
Epoch Day46.12981316
Epoch Year2018
RAAN108.3911
Inclination97.5507
Eccentricity0.0011358
Argument of Perigee154.7002
Mean Anonmoly205.4792
Mean Motion15.22019884
Decay Rate8.55E-06
L11 43119U 18004J 18046.12981316 .00000855 00000-0 40536-4 0 9991
L22 43119 97.5507 108.3911 0011358 154.7002 205.4792 15.22019884 5142

Live tracking and technical data element details for FLOCK 3P'-3 (NORAD 43119). FLOCK 3P'-3 can be tracked NOW for your location showing map with azimuth and elevation plus other details from your city location.

Track the satellite on the map from your city or location and see movement details for azimuth, elevation, latitude, longitude, range, height, and movement on the map or in text.







IsCatalogInMostPopularTable: catalog: 43119, numindb: 59
Update: records affected: 1



GetName: 43119 FLOCK 3P'-3

Hit Count: updated at: Fri, 20 Jul 2018 07:07:56 GMT